TimeCST,TemperatureF,Dew PointF,Humidity,Sea Level PressureIn,VisibilityMPH,Wind Direction,Wind SpeedMPH,Gust SpeedMPH,PrecipitationIn,Events,Conditions,WindDirDegrees,DateUTC
12:15 AM,55.4,51.8,88,30.09,10.0,West,10.4,16.1,N/A,,Overcast,280,2012-11-23 06:15:00
12:55 AM,55.4,50.0,82,30.11,10.0,NW,17.3,21.9,N/A,,Mostly Cloudy,310,2012-11-23 06:55:00
1:15 AM,53.6,46.4,77,30.13,10.0,NW,13.8,24.2,N/A,,Mostly Cloudy,320,2012-11-23 07:15:00
1:35 AM,53.6,42.8,67,30.15,10.0,NW,12.7,21.9,N/A,,Mostly Cloudy,310,2012-11-23 07:35:00
1:55 AM,51.8,37.4,58,30.16,10.0,NW,10.4,18.4,N/A,,Scattered Clouds,320,2012-11-23 07:55:00
2:15 AM,48.2,35.6,62,30.17,10.0,NW,9.2,20.7,N/A,,Clear,320,2012-11-23 08:15:00
2:35 AM,48.2,35.6,62,30.17,10.0,NW,11.5,16.1,N/A,,Clear,320,2012-11-23 08:35:00
2:55 AM,48.2,35.6,62,30.18,10.0,NNW,10.4,17.3,N/A,,Clear,330,2012-11-23 08:55:00
3:15 AM,46.4,35.6,66,30.19,10.0,NW,9.2,-,N/A,,Clear,320,2012-11-23 09:15:00
3:35 AM,46.4,33.8,62,30.19,10.0,NNW,12.7,19.6,N/A,,Clear,340,2012-11-23 09:35:00
3:55 AM,46.4,35.6,66,30.19,10.0,NW,9.2,-,N/A,,Scattered Clouds,320,2012-11-23 09:55:00
4:15 AM,44.6,33.8,66,30.19,10.0,NW,10.4,-,N/A,,Scattered Clouds,320,2012-11-23 10:15:00
4:35 AM,44.6,33.8,66,30.19,10.0,NW,8.1,-,N/A,,Clear,310,2012-11-23 10:35:00
4:55 AM,42.8,33.8,70,30.20,10.0,NW,10.4,-,N/A,,Clear,310,2012-11-23 10:55:00
5:15 AM,42.8,33.8,70,30.21,10.0,WNW,9.2,-,N/A,,Clear,300,2012-11-23 11:15:00
5:35 AM,42.8,32.0,66,30.21,10.0,NW,11.5,16.1,N/A,,Clear,310,2012-11-23 11:35:00
5:55 AM,42.8,30.2,61,30.21,10.0,WNW,8.1,-,N/A,,Clear,300,2012-11-23 11:55:00
6:15 AM,41.0,30.2,65,30.21,10.0,WNW,6.9,-,N/A,,Clear,290,2012-11-23 12:15:00
6:35 AM,39.2,30.2,70,30.21,10.0,West,8.1,-,N/A,,Clear,280,2012-11-23 12:35:00
6:55 AM,39.2,30.2,70,30.22,10.0,West,6.9,-,N/A,,Clear,280,2012-11-23 12:55:00
7:15 AM,39.2,30.2,70,30.22,10.0,West,5.8,-,N/A,,Clear,280,2012-11-23 13:15:00
7:35 AM,39.2,32.0,75,30.23,10.0,West,5.8,-,N/A,,Clear,280,2012-11-23 13:35:00
7:55 AM,42.8,32.0,66,30.24,10.0,WNW,13.8,19.6,N/A,,Clear,290,2012-11-23 13:55:00
8:15 AM,44.6,30.2,57,30.25,10.0,WNW,11.5,21.9,N/A,,Clear,290,2012-11-23 14:15:00
8:35 AM,44.6,32.0,61,30.25,10.0,WNW,16.1,21.9,N/A,,Clear,290,2012-11-23 14:35:00
8:55 AM,44.6,28.4,53,30.26,10.0,WNW,19.6,27.6,N/A,,Clear,300,2012-11-23 14:55:00
9:15 AM,44.6,30.2,57,30.27,10.0,NW,13.8,20.7,N/A,,Scattered Clouds,310,2012-11-23 15:15:00
9:35 AM,44.6,30.2,57,30.27,10.0,NW,19.6,27.6,N/A,,Scattered Clouds,310,2012-11-23 15:35:00
9:55 AM,44.6,30.2,57,30.29,10.0,NW,18.4,23.0,N/A,,Mostly Cloudy,320,2012-11-23 15:55:00
10:15 AM,42.8,30.2,61,30.28,10.0,NW,13.8,19.6,N/A,,Overcast,310,2012-11-23 16:15:00
10:35 AM,42.8,30.2,61,30.28,10.0,WNW,13.8,20.7,N/A,,Overcast,300,2012-11-23 16:35:00
10:55 AM,42.8,30.2,61,30.29,10.0,WNW,12.7,27.6,N/A,,Overcast,300,2012-11-23 16:55:00
11:15 AM,42.8,28.4,57,30.29,10.0,NW,18.4,24.2,N/A,,Overcast,320,2012-11-23 17:15:00
11:35 AM,42.8,28.4,57,30.29,10.0,NW,17.3,25.3,N/A,,Overcast,320,2012-11-23 17:35:00
11:55 AM,42.8,28.4,57,30.29,10.0,NW,12.7,24.2,N/A,,Overcast,310,2012-11-23 17:55:00
12:15 PM,42.8,28.4,57,30.28,10.0,NW,13.8,21.9,N/A,,Overcast,310,2012-11-23 18:15:00
12:35 PM,44.6,28.4,53,30.27,10.0,WNW,15.0,18.4,N/A,,Mostly Cloudy,290,2012-11-23 18:35:00
12:55 PM,44.6,28.4,53,30.27,10.0,NW,15.0,21.9,N/A,,Clear,310,2012-11-23 18:55:00
1:15 PM,44.6,26.6,49,30.27,10.0,WNW,10.4,21.9,N/A,,Clear,290,2012-11-23 19:15:00
1:35 PM,44.6,28.4,53,30.27,10.0,NW,12.7,-,N/A,,Clear,310,2012-11-23 19:35:00
1:55 PM,44.6,26.6,49,30.26,10.0,NW,13.8,20.7,N/A,,Clear,310,2012-11-23 19:55:00
2:15 PM,44.6,24.8,46,30.27,10.0,NW,15.0,24.2,N/A,,Clear,310,2012-11-23 20:15:00
2:35 PM,44.6,24.8,46,30.27,10.0,NW,16.1,20.7,N/A,,Clear,320,2012-11-23 20:35:00
2:55 PM,44.6,24.8,46,30.27,10.0,WNW,15.0,23.0,N/A,,Clear,300,2012-11-23 20:55:00
3:15 PM,44.6,24.8,46,30.28,10.0,NW,15.0,24.2,N/A,,Clear,310,2012-11-23 21:15:00
3:35 PM,44.6,23.0,43,30.28,10.0,NW,13.8,20.7,N/A,,Clear,310,2012-11-23 21:35:00
3:55 PM,42.8,21.2,42,30.29,10.0,NW,15.0,23.0,N/A,,Clear,310,2012-11-23 21:55:00
4:15 PM,41.0,19.4,42,30.30,10.0,NW,12.7,20.7,N/A,,Clear,320,2012-11-23 22:15:00
4:35 PM,39.2,17.6,42,30.30,10.0,NW,10.4,18.4,N/A,,Clear,310,2012-11-23 22:35:00
4:55 PM,39.2,17.6,42,30.30,10.0,WNW,12.7,17.3,N/A,,Clear,300,2012-11-23 22:55:00
5:15 PM,37.4,17.6,45,30.31,10.0,NW,11.5,-,N/A,,Clear,310,2012-11-23 23:15:00
5:35 PM,37.4,17.6,45,30.32,10.0,WNW,12.7,16.1,N/A,,Clear,300,2012-11-23 23:35:00
5:55 PM,37.4,19.4,48,30.32,10.0,NW,11.5,-,N/A,,Clear,310,2012-11-23 23:55:00
6:15 PM,37.4,17.6,45,30.32,10.0,WNW,10.4,19.6,N/A,,Clear,300,2012-11-24 00:15:00
6:35 PM,35.6,17.6,48,30.33,10.0,WNW,10.4,-,N/A,,Clear,300,2012-11-24 00:35:00
6:55 PM,35.6,17.6,48,30.33,10.0,WNW,12.7,17.3,N/A,,Clear,300,2012-11-24 00:55:00
7:15 PM,35.6,17.6,48,30.34,10.0,WNW,10.4,-,N/A,,Clear,300,2012-11-24 01:15:00
7:35 PM,35.6,17.6,48,30.34,10.0,WNW,9.2,-,N/A,,Clear,300,2012-11-24 01:35:00
7:55 PM,33.8,17.6,52,30.34,10.0,NW,8.1,-,N/A,,Clear,310,2012-11-24 01:55:00
8:15 PM,33.8,17.6,52,30.34,10.0,NW,6.9,-,N/A,,Clear,310,2012-11-24 02:15:00
8:35 PM,33.8,17.6,52,30.34,10.0,NW,9.2,-,N/A,,Clear,310,2012-11-24 02:35:00
8:55 PM,33.8,17.6,52,30.34,10.0,NW,9.2,-,N/A,,Clear,320,2012-11-24 02:55:00
9:15 PM,32.0,17.6,55,30.34,10.0,NW,10.4,17.3,N/A,,Clear,320,2012-11-24 03:15:00
9:35 PM,32.0,17.6,55,30.34,10.0,NW,9.2,-,N/A,,Clear,320,2012-11-24 03:35:00
9:55 PM,30.2,15.8,55,30.35,10.0,NW,11.5,-,N/A,,Clear,320,2012-11-24 03:55:00
10:15 PM,30.2,17.6,60,30.34,10.0,NW,9.2,17.3,N/A,,Clear,320,2012-11-24 04:15:00
10:35 PM,30.2,17.6,60,30.34,10.0,NW,9.2,18.4,N/A,,Clear,320,2012-11-24 04:35:00
10:55 PM,30.2,17.6,60,30.34,10.0,NW,11.5,-,N/A,,Clear,320,2012-11-24 04:55:00
11:15 PM,28.4,17.6,64,30.34,10.0,NW,10.4,-,N/A,,Clear,320,2012-11-24 05:15:00
11:35 PM,28.4,17.6,64,30.34,10.0,NW,10.4,-,N/A,,Clear,320,2012-11-24 05:35:00